When you browse on this site, cookies collect data to enhance your experience and personalize the content and advertising you see.
Visit our Privacy Policy to learn more. By continuing to use the site, you agree to this use of cookies and data.
  • In United Kingdom
  • List of Countries
  • For 7 days
  • Water Temperature
  • Weather Map
  • Weather Widgets
  • user-avatar
    Login

    Hourly Weather Mondovi

    Today, 15 September, Sunday

    Time Temperature Precipitation Wind Pressure Humidity
    00:00 +20°C° 0 mm 1 mps 733 mmHg 80%
    01:00 +20°C° 0 mm 1 mps 733 mmHg 83%
    02:00 +20°C° 0 mm 1 mps 732 mmHg 83%
    03:00 +19°C° 0 mm 1 mps 732 mmHg 84%
    04:00 +19°C° 0 mm 1 mps 731 mmHg 84%
    05:00 +19°C° 0 mm 1 mps 732 mmHg 83%
    06:00 +20°C° 0 mm 1 mps 732 mmHg 82%
    07:00 +20°C° 0 mm 1 mps 732 mmHg 79%
    08:00 +22°C° 0 mm 1 mps 732 mmHg 72%
    09:00 +24°C° 0 mm 1 mps 732 mmHg 65%
    10:00 +26°C° 0 mm 1 mps 732 mmHg 58%
    11:00 +27°C° 0 mm 1 mps 732 mmHg 55%
    12:00 +28°C° 0 mm 1 mps 732 mmHg 52%
    13:00 +29°C° 0 mm 1 mps 732 mmHg 49%
    14:00 +29°C° 0 mm 1 mps 732 mmHg 49%
    15:00 +29°C° 0 mm 1 mps 731 mmHg 50%
    16:00 +29°C° 0 mm 1 mps 731 mmHg 51%
    17:00 +27°C° 0 mm 1 mps 731 mmHg 59%
    18:00 +24°C° 0 mm 1 mps 730 mmHg 67%
    19:00 +22°C° 0 mm 1 mps 730 mmHg 75%
    20:00 +22°C° 0 mm 1 mps 730 mmHg 77%
    21:00 +21°C° 0 mm 1 mps 730 mmHg 78%
    22:00 +21°C° 0 mm 1 mps 730 mmHg 79%
    23:00 +21°C° 0 mm 1 mps 730 mmHg 79%

    Tomorrow, 16 September, Monday

    Time Temperature Precipitation Wind Pressure Humidity
    00:00 +20°C° 0 mm 1 mps 730 mmHg 79%
    01:00 +20°C° 0 mm 1 mps 730 mmHg 79%
    02:00 +20°C° 0 mm 1 mps 729 mmHg 80%
    03:00 +20°C° 0 mm 1 mps 729 mmHg 80%
    04:00 +19°C° 0 mm 1 mps 729 mmHg 81%
    05:00 +20°C° 0 mm 1 mps 729 mmHg 80%
    06:00 +20°C° 0 mm 1 mps 729 mmHg 79%
    07:00 +20°C° 0 mm 1 mps 729 mmHg 78%
    08:00 +23°C° 0 mm 1 mps 729 mmHg 71%
    09:00 +25°C° 0 mm 1 mps 729 mmHg 64%
    10:00 +25°C° 0 mm 0 mps 729 mmHg 57%
    11:00 +28°C° 0 mm 1 mps 729 mmHg 55%
    12:00 +29°C° 0 mm 1 mps 729 mmHg 52%
    13:00 +30°C° 0 mm 1 mps 729 mmHg 50%
    14:00 +30°C° 0.2 mm 1 mps 728 mmHg 52%
    15:00 +29°C° 0.2 mm 1 mps 728 mmHg 54%
    16:00 +29°C° 0.2 mm 1 mps 727 mmHg 56%
    17:00 +27°C° 0.2 mm 1 mps 727 mmHg 64%
    18:00 +24°C° 0.2 mm 1 mps 726 mmHg 71%
    19:00 +22°C° 0.2 mm 1 mps 726 mmHg 79%
    20:00 +22°C° 0 mm 1 mps 726 mmHg 79%
    21:00 +21°C° 0 mm 1 mps 727 mmHg 80%
    22:00 +21°C° 0 mm 1 mps 727 mmHg 80%
    23:00 +21°C° 0 mm 1 mps 727 mmHg 81%

    Day after tomorrow, 17 September, Tuesday

    Time Temperature Precipitation Wind Pressure Humidity
    00:00 +20°C° 0 mm 1 mps 727 mmHg 81%
    01:00 +20°C° 0 mm 1 mps 726 mmHg 82%
    02:00 +20°C° 0 mm 1 mps 726 mmHg 82%
    03:00 +20°C° 0 mm 1 mps 726 mmHg 82%
    04:00 +20°C° 0 mm 1 mps 725 mmHg 82%
    05:00 +20°C° 0 mm 1 mps 725 mmHg 82%
    06:00 +20°C° 0 mm 1 mps 725 mmHg 82%
    07:00 +20°C° 0 mm 1 mps 726 mmHg 81%
    08:00 +22°C° 0 mm 1 mps 726 mmHg 75%
    09:00 +24°C° 0 mm 1 mps 726 mmHg 68%
    10:00 +27°C° 0 mm 1 mps 726 mmHg 61%
    11:00 +27°C° 0 mm 1 mps 726 mmHg 59%
    12:00 +28°C° 0 mm 1 mps 726 mmHg 57%
    13:00 +29°C° 0 mm 2 mps 725 mmHg 55%
    14:00 +29°C° 0.1 mm 2 mps 725 mmHg 57%
    15:00 +29°C° 0.1 mm 2 mps 725 mmHg 58%
    16:00 +28°C° 0.1 mm 2 mps 724 mmHg 60%
    17:00 +26°C° 0.1 mm 2 mps 724 mmHg 69%
    18:00 +24°C° 0.1 mm 2 mps 724 mmHg 77%
    19:00 +21°C° 0.1 mm 2 mps 724 mmHg 86%
    20:00 +21°C° 0 mm 1 mps 724 mmHg 86%
    21:00 +21°C° 0 mm 1 mps 724 mmHg 87%
    22:00 +20°C° 0 mm 1 mps 724 mmHg 87%
    23:00 +20°C° 0 mm 1 mps 724 mmHg 88%

    18 September, Wednesday

    Time Temperature Precipitation Wind Pressure Humidity
    00:00 +20°C° 0 mm 1 mps 724 mmHg 88%
    01:00 +19°C° 0 mm 1 mps 724 mmHg 89%
    02:00 +19°C° 0 mm 1 mps 724 mmHg 89%
    03:00 +19°C° 0 mm 1 mps 724 mmHg 90%
    04:00 +17°C° 0 mm 0 mps 724 mmHg 90%
    05:00 +17°C° 0 mm 0 mps 724 mmHg 90%
    06:00 +17°C° 0 mm 0 mps 724 mmHg 90%
    07:00 +18°C° 0 mm 0 mps 724 mmHg 90%
    08:00 +19°C° 0.1 mm 0 mps 724 mmHg 86%
    09:00 +20°C° 0.1 mm 0 mps 725 mmHg 83%
    10:00 +23°C° 0.1 mm 1 mps 725 mmHg 79%
    11:00 +24°C° 0.4 mm 1 mps 725 mmHg 77%
    12:00 +25°C° 0.4 mm 1 mps 725 mmHg 74%
    13:00 +25°C° 0.4 mm 1 mps 725 mmHg 72%
    14:00 +25°C° 0.8 mm 1 mps 725 mmHg 73%
    15:00 +25°C° 0.8 mm 1 mps 724 mmHg 74%
    16:00 +25°C° 0.8 mm 2 mps 724 mmHg 76%
    17:00 +24°C° 1.2 mm 1 mps 724 mmHg 81%
    18:00 +22°C° 1.2 mm 1 mps 724 mmHg 86%
    19:00 +21°C° 1.2 mm 1 mps 724 mmHg 91%
    20:00 +20°C° 1 mm 1 mps 724 mmHg 91%
    21:00 +20°C° 1 mm 1 mps 725 mmHg 92%
    22:00 +20°C° 1 mm 1 mps 725 mmHg 92%
    23:00 +19°C° 1.3 mm 1 mps 725 mmHg 94%

    19 September, Thursday

    Time Temperature Precipitation Wind Pressure Humidity
    00:00 +19°C° 1.3 mm 1 mps 725 mmHg 95%
    01:00 +19°C° 1.3 mm 1 mps 725 mmHg 97%
    02:00 +19°C° 0.4 mm 1 mps 725 mmHg 97%
    03:00 +19°C° 0.4 mm 1 mps 725 mmHg 97%
    04:00 +19°C° 0.4 mm 1 mps 725 mmHg 97%
    05:00 +18°C° 0.2 mm 2 mps 725 mmHg 97%
    06:00 +18°C° 0.2 mm 2 mps 725 mmHg 97%
    07:00 +18°C° 0.2 mm 2 mps 725 mmHg 97%
    08:00 +18°C° 0.1 mm 2 mps 726 mmHg 96%
    09:00 +18°C° 0.1 mm 2 mps 726 mmHg 94%
    10:00 +18°C° 0.1 mm 2 mps 726 mmHg 93%
    11:00 +18°C° 0.1 mm 2 mps 726 mmHg 92%
    12:00 +18°C° 0.1 mm 2 mps 727 mmHg 91%
    13:00 +18°C° 0.1 mm 2 mps 727 mmHg 90%
    14:00 +18°C° 0.1 mm 2 mps 726 mmHg 88%
    15:00 +18°C° 0.1 mm 2 mps 726 mmHg 86%
    16:00 +20°C° 0.1 mm 1 mps 726 mmHg 85%
    17:00 +19°C° 0 mm 1 mps 726 mmHg 87%
    18:00 +18°C° 0 mm 1 mps 726 mmHg 90%
    19:00 +16°C° 0 mm 1 mps 727 mmHg 93%
    20:00 +16°C° 0 mm 1 mps 727 mmHg 93%
    21:00 +16°C° 0 mm 1 mps 728 mmHg 93%
    22:00 +16°C° 0 mm 1 mps 728 mmHg 93%
    23:00 +16°C° 0 mm 1 mps 728 mmHg 93%

    20 September, Friday

    Time Temperature Precipitation Wind Pressure Humidity
    00:00 +16°C° 0 mm 1 mps 729 mmHg 92%
    01:00 +16°C° 0 mm 2 mps 729 mmHg 91%
    02:00 +16°C° 0 mm 2 mps 729 mmHg 91%
    03:00 +16°C° 0 mm 2 mps 729 mmHg 90%
    04:00 +15°C° 0 mm 2 mps 729 mmHg 89%
    05:00 +15°C° 0 mm 2 mps 729 mmHg 88%
    06:00 +15°C° 0 mm 2 mps 729 mmHg 88%
    07:00 +15°C° 0 mm 2 mps 729 mmHg 87%
    08:00 +15°C° 0 mm 2 mps 729 mmHg 83%
    09:00 +16°C° 0 mm 2 mps 730 mmHg 79%
    10:00 +17°C° 0 mm 2 mps 730 mmHg 74%
    11:00 +17°C° 0 mm 2 mps 730 mmHg 72%
    12:00 +18°C° 0 mm 3 mps 730 mmHg 70%
    13:00 +18°C° 0 mm 3 mps 730 mmHg 68%
    14:00 +18°C° 0 mm 2 mps 730 mmHg 68%
    15:00 +18°C° 0 mm 2 mps 730 mmHg 67%
    16:00 +18°C° 0 mm 2 mps 730 mmHg 67%
    17:00 +17°C° 0 mm 2 mps 730 mmHg 70%
    18:00 +16°C° 0 mm 2 mps 730 mmHg 74%
    19:00 +15°C° 0 mm 2 mps 730 mmHg 77%
    20:00 +15°C° 0 mm 2 mps 730 mmHg 77%
    21:00 +15°C° 0 mm 1 mps 731 mmHg 78%
    22:00 +14°C° 0 mm 1 mps 731 mmHg 78%
    23:00 +14°C° 0 mm 2 mps 731 mmHg 76%
    Show more